Location: Beutels
(47.8767°N, 9.8584°E)
Time: 21:35:50
(UTC+00:00)

NOSS 2-1 (E) - Pass Details

Date: 19 May 2025
Orbit: 385 x 1749 km, 63.3° (Epoch: 07 May)

Event Time Altitude Azimuth Distance (km) Brightness Sun altitude
Exits shadow 22:21:20 48° 55° (NE) 557 3.4 -21.0°
Drops below altitude 10° 22:23:37 10° 43° (NE) 1,440 5.9 -21.1°
Sets 22:25:33 0° 42° (NE) 2,279 7.0 -21.2°
